EW3302 Weather Reports


Display with metric or nautical units.
time (UTC)temp
F
wind
direction
speed
MPH
gust
MPH
rain 1hr
in
rain 24hr
in
rain mn
in
humidity
%
barometer
mb
20260901060556 54 293 1.0 3.0 0.00 0.00 0.00 95 1007.4
20260901055536 53 293 2.0 4.0 0.00 0.00 0.00 96 1007.2
20260901054516 53 315 2.0 5.0 0.00 0.00 0.00 96 1007.2
20260901053516 52 315 2.0 5.0 0.00 0.00 0.00 96 1007.2
20260901052515 52 315 1.0 3.0 0.00 0.00 0.00 95 1007.2
20260901051536 52 338 1.0 2.0 0.00 0.00 0.00 95 1007.1
20260901050516 52 315 1.0 2.0 0.00 0.00 0.00 95 1007.2
20260901045516 52 315 1.0 3.0 0.00 0.00 0.00 95 1007.1
20260901044536 52 315 2.0 5.0 0.00 0.00 0.00 95 1007.1
20260901043516 53 293 2.0 5.0 0.00 0.00 0.00 95 1007.0
20260901042515 53 315 2.0 5.0 0.00 0.00 0.00 95 1007.0
20260901041515 53 293 1.0 3.0 0.00 0.00 0.00 95 1007.0
20260901040515 53 315 2.0 4.0 0.00 0.01 0.00 95 1007.0
20260901035516 53 293 1.0 3.0 0.00 0.01 0.00 95 1006.9
20260901034516 54 0 1.0 3.0 0.00 0.01 0.00 95 1006.9
20260901033516 54 0 1.0 3.0 0.00 0.01 0.00 96 1006.8
20260901032556 54 23 1.0 3.0 0.00 0.01 0.00 96 1006.8
20260901031515 54 0.0 2.0 0.00 0.01 0.00 96 1006.8
20260901030516 54 293 1.0 3.0 0.00 0.01 0.00 96 1006.7
20260901025516 53 293 2.0 6.0 0.00 0.01 0.00 96 1006.7
20260901024515 53 293 3.0 5.0 0.00 0.01 0.00 96 1006.6
20260901023516 53 315 2.0 3.0 0.00 0.01 0.00 95 1006.6
20260901022516 53 338 1.0 3.0 0.00 0.02 0.00 95 1006.6
20260901021516 54 338 1.0 2.0 0.00 0.02 0.00 95 1006.4
20260901020515 54 338 1.0 2.0 0.00 0.03 0.00 95 1006.4
20260901015516 54 0.0 1.0 0.00 0.03 0.00 95 1006.3
20260901014516 55 90 1.0 2.0 0.00 0.04 0.00 96 1006.3
20260901013515 55 0.0 1.0 0.00 0.05 0.00 96 1006.1
20260901012516 55 293 2.0 6.0 0.00 0.06 0.00 96 1005.9
20260901011515 54 293 3.0 5.0 0.00 0.06 0.00 96 1005.9
20260901010516 54 293 1.0 5.0 0.00 0.06 0.00 96 1005.9
20260901005515 54 315 1.0 4.0 0.00 0.06 0.00 95 1005.8
20260901004536 54 270 1.0 3.0 0.00 0.06 0.00 95 1005.7
20260901003515 54 270 1.0 2.0 0.00 0.06 0.00 95 1005.8
20260901002516 54 270 1.0 1.0 0.00 0.07 0.00 95 1005.7
20260901001515 54 270 1.0 2.0 0.00 0.07 0.00 95 1005.6
20260901000516 54 270 2.0 3.0 0.00 0.07 0.00 96 1005.6
20260831235536 54 248 2.0 4.0 0.00 0.07 0.00 96 1005.6
20260831234556 54 315 1.0 3.0 0.00 0.07 0.00 95 1005.5
20260831233515 53 270 1.0 4.0 0.00 0.07 0.00 95 1005.5
20260831232516 53 270 1.0 3.0 0.00 0.07 0.00 95 1005.4
20260831231516 52 293 2.0 3.0 0.00 0.07 0.00 95 1005.3
20260831230516 52 0.0 2.0 0.00 0.07 0.00 94 1005.3
20260831225515 52 0.0 1.0 0.00 0.07 0.00 94 1005.3
20260831224516 52 0.0 1.0 0.00 0.07 0.00 94 1005.3
20260831223515 52 293 1.0 2.0 0.00 0.07 0.00 94 1005.2
20260831222515 53 293 1.0 2.0 0.00 0.07 0.00 94 1005.3
20260831221535 52 293 2.0 3.0 0.00 0.07 0.00 93 1005.4
20260831220515 53 0.0 2.0 0.00 0.07 0.00 93 1005.3
20260831215557 53 248 1.0 2.0 0.00 0.07 0.07 92 1005.4
20260831214537 53 0.0 1.0 0.00 0.07 0.07 92 1005.4
20260831213517 54 0.0 1.0 0.00 0.07 0.07 92 1005.4
20260831212517 54 248 1.0 3.0 0.00 0.07 0.07 92 1005.4
20260831211517 54 0.0 0.0 0.00 0.07 0.07 91 1005.3
20260831210517 55 248 1.0 3.0 0.00 0.07 0.07 91 1005.2
20260831205517 55 203 1.0 3.0 0.00 0.07 0.07 91 1005.2
20260831204517 55 203 1.0 2.0 0.00 0.07 0.07 90 1005.0
20260831203517 56 0.0 0.0 0.00 0.07 0.07 89 1005.1
20260831202537 56 0.0 0.0 0.00 0.07 0.07 88 1005.0
20260831201517 57 0.0 1.0 0.00 0.07 0.07 88 1005.0
20260831200517 58 0.0 1.0 0.00 0.07 0.07 87 1005.0
20260831195517 58 203 2.0 4.0 0.00 0.07 0.07 87 1005.0
20260831194517 58 203 2.0 5.0 0.00 0.07 0.07 87 1005.1
20260831193517 59 158 1.0 4.0 0.00 0.07 0.07 86 1005.1
20260831192517 59 180 2.0 5.0 0.00 0.07 0.07 86 1005.0
20260831191517 59 180 3.0 5.0 0.00 0.07 0.07 86 1005.0
20260831190517 59 180 4.0 6.0 0.00 0.07 0.07 85 1005.0
20260831185517 59 180 4.0 6.0 0.00 0.07 0.07 85 1005.0
20260831184517 60 180 4.0 7.0 0.00 0.07 0.07 85 1004.9
20260831183517 60 158 3.0 8.0 0.00 0.07 0.07 84 1004.9
20260831182517 60 180 3.0 6.0 0.00 0.07 0.07 83 1004.8
20260831181517 60 180 3.0 7.0 0.00 0.07 0.07 82 1004.7
20260831180517 61 180 2.0 4.0 0.00 0.07 0.07 81 1004.7
20260831175517 61 180 4.0 8.0 0.00 0.07 0.07 80 1004.5
20260831174537 62 180 4.0 9.0 0.00 0.07 0.07 79 1004.5
20260831173517 62 203 4.0 7.0 0.00 0.07 0.07 79 1004.5
20260831172517 63 203 5.0 8.0 0.00 0.07 0.07 78 1004.5
20260831171537 63 203 5.0 10.0 0.00 0.07 0.07 78 1004.4
20260831170557 63 180 5.0 11.0 0.00 0.07 0.07 78 1004.2
20260831165517 64 180 4.0 9.0 0.00 0.07 0.07 78 1004.2
20260831164537 64 203 5.0 9.0 0.00 0.07 0.07 77 1004.1
20260831163517 64 203 7.0 11.0 0.00 0.07 0.07 76 1003.9
20260831162517 65 180 6.0 10.0 0.00 0.07 0.07 76 1004.0
20260831161516 65 180 6.0 12.0 0.00 0.07 0.07 75 1003.9
20260831160516 65 180 7.0 13.0 0.00 0.07 0.07 74 1003.9
20260831155557 66 180 6.0 13.0 0.00 0.07 0.07 74 1003.8
20260831154556 66 180 4.0 8.0 0.00 0.07 0.07 76 1003.8
20260831153517 66 180 5.0 10.0 0.00 0.07 0.07 75 1003.8
20260831152517 66 180 8.0 16.0 0.00 0.07 0.07 74 1003.7
20260831151536 66 180 5.0 12.0 0.00 0.07 0.07 75 1003.8
20260831150536 67 180 7.0 15.0 0.00 0.07 0.07 74 1003.8
20260831145516 66 158 6.0 11.0 0.00 0.07 0.07 75 1003.7
20260831144516 66 158 4.0 7.0 0.00 0.07 0.07 75 1003.8
20260831143516 67 180 5.0 10.0 0.00 0.07 0.07 74 1003.8
20260831142516 68 135 5.0 9.0 0.00 0.07 0.07 73 1003.8
20260831141516 67 180 7.0 12.0 0.00 0.07 0.07 75 1003.9
20260831140516 67 135 5.0 10.0 0.00 0.07 0.07 72 1003.9
20260831135516 67 203 4.0 8.0 0.00 0.07 0.07 74 1003.9
20260831134536 67 180 5.0 12.0 0.00 0.07 0.07 72 1003.9
20260831133517 67 180 5.0 9.0 0.00 0.07 0.07 70 1003.9
20260831132516 68 180 2.0 5.0 0.00 0.07 0.07 69 1003.8
20260831131516 67 248 4.0 9.0 0.00 0.07 0.07 68 1003.7
20260831130516 67 248 3.0 13.0 0.00 0.07 0.07 69 1003.6
20260831125517 67 248 4.0 8.0 0.00 0.07 0.07 66 1003.6
20260831124517 67 248 2.0 10.0 0.00 0.07 0.07 67 1003.6
20260831123536 67 270 3.0 6.0 0.00 0.07 0.07 69 1003.6
20260831122516 67 203 4.0 8.0 0.00 0.07 0.07 70 1003.5
20260831121516 66 225 3.0 5.0 0.00 0.07 0.07 73 1003.6
20260831120536 65 203 5.0 9.0 0.00 0.07 0.07 74 1003.6
20260831115517 65 203 4.0 7.0 0.00 0.07 0.07 76 1003.7
20260831114516 64 248 3.0 7.0 0.00 0.07 0.07 76 1003.7
20260831113516 64 248 4.0 8.0 0.00 0.07 0.07 76 1003.7
20260831112516 65 248 4.0 9.0 0.00 0.07 0.07 76 1003.7
20260831111516 65 203 5.0 10.0 0.00 0.07 0.07 77 1003.6
20260831110516 65 203 5.0 9.0 0.00 0.07 0.07 77 1003.5
20260831105516 65 180 4.0 9.0 0.00 0.07 0.07 77 1003.5
20260831104516 64 180 3.0 7.0 0.00 0.07 0.07 80 1003.5
20260831103516 64 135 3.0 6.0 0.00 0.07 0.07 80 1003.5
20260831102516 64 180 5.0 9.0 0.00 0.07 0.07 80 1003.5
20260831101516 64 203 5.0 8.0 0.00 0.07 0.07 80 1003.5
20260831100516 63 203 3.0 6.0 0.00 0.07 0.07 83 1003.5
20260831095536 63 158 3.0 7.0 0.00 0.07 0.07 83 1003.4
20260831094516 63 180 2.0 4.0 0.00 0.07 0.07 83 1003.4
20260831093516 63 135 3.0 7.0 0.00 0.07 0.07 82 1003.3
20260831092516 63 225 4.0 7.0 0.00 0.07 0.07 83 1003.3
20260831091516 62 203 2.0 4.0 0.00 0.07 0.07 84 1003.2
20260831090516 62 225 1.0 4.0 0.00 0.07 0.07 84 1003.3
20260831085516 62 203 2.0 4.0 0.00 0.07 0.07 85 1003.3
20260831084516 61 248 2.0 4.0 0.00 0.07 0.07 85 1003.3
20260831083516 61 203 3.0 7.0 0.00 0.07 0.07 86 1003.3
20260831082516 61 203 4.0 6.0 0.00 0.07 0.07 85 1003.2
20260831081516 61 203 5.0 9.0 0.00 0.07 0.07 84 1003.3
20260831080536 61 203 4.0 8.0 0.00 0.07 0.07 85 1003.2
20260831075516 61 203 5.0 9.0 0.00 0.07 0.07 86 1003.1
20260831074517 61 203 3.0 9.0 0.00 0.07 0.07 87 1003.1
20260831073516 61 203 4.0 9.0 0.00 0.07 0.07 89 1003.0
20260831072516 60 180 4.0 8.0 0.00 0.07 0.07 92 1002.9
20260831071516 59 203 3.0 6.0 0.00 0.07 0.07 92 1002.8
20260831070516 60 225 1.0 3.0 0.00 0.07 0.07 95 1002.7
20260831065516 60 225 3.0 5.0 0.00 0.07 0.07 95 1002.6
20260831064516 60 270 1.0 3.0 0.00 0.07 0.07 96 1002.6
20260831063536 60 225 1.0 3.0 0.00 0.07 0.07 96 1002.6
20260831062516 60 135 1.0 2.0 0.00 0.07 0.07 97 1002.6
20260831061516 59 0.0 1.0 0.00 0.07 0.07 97 1002.6